GFSNE_250_spd_273.txt.gz
Wind_Speed
25 25 23 20 13 11 11 14 12 11 10 9 12 12 9 8 10 9 11 10 11 9 9 11 9 9 12 11 11 10 7 6 6 7 6 4 3 3
22 20 23 23 17 16 13 17 16 11 12 10 13 14 15 11 9 9 9 8 7 6 6 5 6 3 2 5 4 4 6 7 6 5 5 4 4 3
22 21 21 18 17 15 15 19 15 11 12 10 18 9 21 20 17 13 14 13 11 7 6 5 4 5 4 3 2 1 2 5 3 3 6 4 5 4
25 24 24 20 16 16 16 11 13 15 13 7 9 25 22 20 20 20 23 15 13 10 9 7 7 8 9 11 10 9 6 7 9 7 10 9 9 9
26 26 26 25 16 13 12 17 15 15 15 16 18 21 19 17 16 22 26 25 17 18 14 13 11 15 12 13 14 14 15 18 19 18 19 17 18 18
32 29 31 27 22 16 24 15 25 23 17 19 20 21 19 11 17 19 24 28 21 22 23 20 18 20 18 18 23 24 23 24 25 30 31 26 25 26
37 32 32 33 25 26 20 18 28 24 21 20 26 23 23 23 21 20 19 23 24 24 26 31 27 28 28 28 30 29 26 26 29 38 38 29 29 32
36 35 35 33 27 31 28 32 39 34 35 35 36 33 29 25 24 26 31 34 25 33 31 32 33 34 37 37 34 34 29 31 31 39 35 34 35 34
39 38 39 42 36 37 39 42 43 40 42 43 37 34 32 40 46 45 39 39 39 36 38 34 35 37 38 41 40 40 39 35 35 48 42 32 34 38
41 39 43 45 42 39 37 41 42 43 39 43 47 41 47 50 49 47 47 49 51 49 49 39 37 38 38 37 42 42 38 41 46 48 38 39 39 40
44 39 39 44 49 47 48 46 52 46 48 51 53 54 55 53 51 59 51 52 43 44 45 44 46 44 43 42 43 46 53 54 56 57 54 51 43 43
43 47 47 42 40 46 47 48 51 51 56 55 57 59 62 63 61 58 62 52 51 48 51 47 48 47 44 43 50 49 53 58 58 57 55 55 53 52
43 44 50 53 53 51 50 54 55 54 54 55 59 63 65 61 65 56 51 52 53 55 54 52 47 48 47 48 54 56 59 59 57 57 58 59 59 60
32 35 41 44 54 60 62 62 61 61 66 67 68 70 69 63 60 61 61 60 60 61 64 60 55 51 52 52 54 59 56 56 56 57 59 60 61 61
22 21 22 24 27 32 40 47 53 57 58 59 60 61 61 65 66 67 63 62 57 56 55 56 54 53 52 52 54 56 58 59 60 59 60 60 65 69
32 33 34 32 36 39 35 43 47 47 47 47 49 52 51 51 53 52 51 49 47 46 47 51 54 56 57 56 53 56 60 63 67 66 64 64 65 67
51 46 46 46 43 41 44 42 48 49 45 43 41 40 41 40 41 40 39 39 39 40 43 46 50 56 62 63 61 61 62 62 65 66 66 67 72 73
38 38 42 45 49 47 49 49 47 52 50 48 49 46 47 46 47 48 48 49 47 48 52 55 54 52 53 55 53 61 67 70 66 65 67 66 67 68
41 42 42 45 51 55 53 51 49 51 54 55 52 54 51 51 53 51 53 54 55 55 55 58 62 62 58 58 54 53 52 51 55 60 63 62 62 67
57 58 45 42 47 52 55 57 54 56 59 60 59 57 58 57 60 59 59 58 61 62 65 68 65 67 66 60 63 71 73 72 71 73 77 73 73 73
50 50 54 48 47 49 52 56 60 60 61 64 66 64 64 67 66 71 71 72 72 70 71 73 71 66 70 71 77 78 78 77 76 76 78 76 74 77
68 47 44 44 51 56 63 65 68 71 75 74 76 78 77 77 77 77 79 81 79 75 73 72 71 79 85 82 80 78 75 76 74 75 76 79 81 81
68 65 60 52 50 52 58 62 64 69 74 81 85 86 91 93 86 84 84 85 83 84 90 85 87 88 85 80 78 81 79 70 80 80 81 83 81 82

GFSNE_250_spd_276.txt.gz
Wind_Speed
16 17 14 19 19 15 13 8 5 16 14 14 14 15 13 13 15 17 19 18 18 15 13 14 13 15 14 12 11 9 7 6 5 5 5 4 4 3
21 21 22 21 17 16 15 14 13 15 15 14 17 16 16 16 17 19 19 18 16 14 10 9 9 7 9 10 9 6 5 6 7 6 6 5 4 5
29 22 20 16 16 18 17 13 13 12 15 18 16 16 20 18 27 21 18 22 25 21 10 7 4 3 3 2 3 3 4 2 1 1 5 6 4 3
29 26 21 18 16 14 17 14 8 8 14 17 16 14 13 23 25 24 17 17 23 28 17 10 6 6 6 6 9 7 4 3 5 9 10 12 13 12
33 30 24 22 22 17 16 19 15 6 6 18 17 12 17 18 21 23 18 18 18 24 18 21 17 14 12 12 15 15 15 15 14 17 18 19 20 19
32 32 27 27 19 23 21 17 13 18 22 18 16 16 21 20 17 14 14 18 16 15 18 16 15 25 25 18 22 22 20 20 21 23 22 22 26 30
37 33 34 28 26 31 28 27 27 24 28 19 22 22 25 26 27 27 21 17 23 24 31 23 27 24 25 32 34 32 28 29 27 28 27 26 29 35
39 35 39 38 38 36 33 28 25 29 27 29 32 30 32 35 39 34 27 24 38 36 30 31 29 31 32 32 31 33 34 35 35 34 33 32 32 35
44 38 38 42 43 40 40 39 33 29 36 35 33 37 43 44 37 35 36 34 35 35 34 36 40 40 38 34 32 35 38 40 42 40 38 38 37 37
46 45 44 46 46 46 43 40 38 40 43 41 38 39 45 43 39 35 38 43 36 47 46 47 43 45 41 36 37 39 38 39 45 45 44 41 42 42
50 49 47 47 51 47 47 50 41 41 40 45 46 51 48 45 44 46 48 51 47 51 49 51 52 52 45 44 43 41 43 43 40 45 44 42 43 47
51 52 50 50 51 51 49 54 54 51 47 45 53 47 53 55 55 54 55 56 53 54 59 66 62 53 48 47 47 46 46 44 46 46 50 55 58 59
41 46 47 46 50 50 52 53 56 56 53 54 60 62 63 66 65 67 66 63 62 66 67 61 52 55 56 58 59 60 56 53 49 51 52 56 61 61
31 35 39 43 45 53 54 54 52 54 54 55 57 58 60 63 66 63 63 63 61 56 57 61 64 64 63 60 56 51 51 49 49 50 53 57 60 61
27 29 28 28 32 40 46 56 59 60 60 61 63 66 62 61 61 66 66 66 67 66 61 55 50 51 49 42 39 39 43 46 47 48 52 54 56 58
23 25 24 21 22 26 28 31 37 42 47 46 48 53 54 52 56 55 59 58 54 49 49 48 45 42 40 38 39 38 38 42 47 48 53 57 61 61
31 39 38 36 34 38 40 41 45 47 49 49 51 50 50 51 52 50 51 47 43 41 42 40 40 39 41 44 41 42 47 50 51 50 51 49 54 61
44 40 43 42 45 41 41 46 45 44 51 52 51 54 52 55 53 52 53 51 52 50 50 48 48 50 50 50 50 52 52 54 55 59 59 52 57 56
48 50 52 48 44 43 47 45 42 57 59 51 48 53 56 57 54 58 58 57 59 55 54 55 54 53 51 51 56 57 60 59 63 66 66 64 65 65
53 50 54 50 52 54 55 57 59 60 65 61 58 57 60 62 63 63 60 62 61 57 54 52 57 59 64 64 62 64 69 72 71 70 72 67 70 73
58 56 55 60 65 66 63 58 54 57 60 58 59 57 60 65 66 68 71 68 66 64 65 66 68 71 71 73 74 77 78 78 78 72 74 75 75 71
69 68 69 70 70 68 69 66 67 64 65 68 65 65 64 63 63 71 73 75 77 80 75 74 76 78 81 85 88 84 87 84 78 80 79 80 79 81
71 72 77 78 72 72 74 79 82 83 87 87 88 75 72 69 75 79 79 80 83 83 86 86 88 90 92 92 89 86 86 85 85 91 91 88 87 84

GFSNE_250_spd_279.txt.gz
Wind_Speed
19 16 15 10 18 12 16 15 11 3 14 12 12 14 11 16 22 27 25 24 21 18 21 17 19 20 19 18 16 14 11 10 8 7 7 6 6 4
19 20 17 16 19 16 16 16 17 16 13 13 11 12 10 7 14 21 23 20 21 20 14 11 10 11 13 13 12 10 10 10 8 5 6 7 4 2
28 24 22 19 19 18 15 17 18 19 15 13 9 7 9 10 14 16 20 17 15 22 20 10 6 7 5 6 7 5 5 4 3 4 1 4 6 6
30 26 25 25 21 19 14 14 17 18 19 15 11 10 11 3 11 12 16 15 7 10 12 12 13 11 7 5 4 8 6 6 6 6 8 7 11 14
35 31 27 24 26 19 19 18 20 21 15 13 17 13 8 11 14 12 8 7 10 9 5 10 12 8 13 16 11 9 11 10 13 17 16 17 16 14
35 32 26 27 28 23 26 21 21 27 24 14 19 17 15 16 14 10 12 15 11 9 11 27 15 9 13 9 19 20 21 22 21 20 20 21 21 21
38 35 32 27 30 27 30 30 27 26 25 22 14 15 15 18 16 16 19 16 17 17 20 28 18 17 17 18 21 18 24 24 29 25 28 27 26 27
45 41 37 33 33 33 36 33 32 31 30 28 29 34 23 23 24 22 25 25 23 23 24 20 21 22 24 23 23 29 29 26 28 30 33 34 33 35
47 46 45 40 37 38 40 41 40 39 37 32 30 26 24 28 33 30 32 30 25 25 28 27 31 33 34 37 29 34 41 30 29 33 33 35 37 39
54 51 48 45 45 45 42 44 44 44 43 41 37 36 33 32 34 41 40 35 38 37 36 37 39 41 38 41 38 44 48 39 39 39 39 38 39 40
56 55 52 50 49 47 46 41 50 51 51 51 49 48 45 47 47 48 46 45 40 35 41 46 47 48 45 43 44 51 51 50 47 42 39 41 43 45
48 53 52 52 51 51 53 52 50 50 55 55 52 52 52 51 52 49 49 46 49 50 52 54 55 54 49 45 50 53 58 50 51 53 52 50 47 46
36 48 56 57 56 59 57 55 52 54 56 59 59 55 51 47 47 50 51 53 57 60 60 63 58 53 54 60 66 65 59 59 56 51 48 43 43 46
25 31 37 43 46 54 58 59 57 57 58 59 59 59 60 58 56 57 61 63 64 64 59 59 61 58 59 63 62 64 63 57 48 39 35 37 39 42
20 20 22 28 35 39 43 48 48 51 55 55 57 58 58 57 56 58 59 59 57 61 61 55 55 55 51 48 48 50 49 45 40 30 31 33 36 40
21 25 18 22 28 32 36 39 41 44 48 51 55 58 59 60 63 64 64 62 63 67 69 62 53 49 47 47 47 48 45 42 43 41 37 39 41 43
37 34 31 29 26 30 27 32 34 35 35 36 40 41 42 50 52 53 54 53 54 56 57 57 54 50 48 47 44 42 41 44 48 50 50 48 49 50
44 41 40 37 42 39 39 35 38 39 40 45 47 48 46 40 46 48 57 58 59 58 60 58 60 54 54 56 55 52 52 54 56 57 57 55 54 56
55 54 51 52 55 47 46 44 44 45 46 47 45 47 48 52 55 54 52 50 54 54 56 62 61 61 60 63 62 61 59 60 61 59 59 60 60 64
64 69 64 60 57 59 53 55 58 59 55 55 56 55 59 59 60 63 68 63 61 60 57 60 68 67 70 66 65 64 63 62 62 63 66 69 71 71
58 64 57 57 59 59 61 58 60 58 63 69 67 63 68 69 67 64 65 66 65 64 66 69 70 69 65 69 75 72 73 74 73 77 77 77 78 79
71 65 66 61 60 64 69 70 70 71 69 70 75 79 79 78 79 76 77 77 79 80 83 82 80 75 78 77 80 79 79 82 85 83 85 82 83 85
66 69 77 78 79 77 76 74 74 75 78 79 83 87 88 88 88 84 83 83 84 85 85 86 87 86 84 86 85 91 92 87 89 89 90 89 87 86

GFSNE_250_spd_285.txt.gz
Wind_Speed
19 16 15 15 12 15 13 12 11 8 16 9 10 4 4 5 10 15 14 16 17 15 17 23 23 24 27 24 23 22 20 16 11 10 7 7 7 7
27 23 18 18 18 16 15 14 15 11 19 13 10 6 7 10 13 9 9 12 13 11 12 13 14 16 16 18 19 17 16 17 16 14 12 10 9 8
33 28 25 21 19 16 20 19 16 13 23 16 11 9 4 9 17 7 5 1 3 9 10 10 8 6 10 9 10 10 11 9 9 8 7 7 3 4
37 35 31 29 22 23 23 23 24 19 15 15 15 6 7 11 14 12 5 2 6 2 12 13 7 4 5 7 4 5 3 4 4 4 4 4 4 5
42 37 36 32 32 31 25 23 22 22 19 18 12 18 18 16 20 17 8 4 1 4 4 8 7 4 1 3 3 3 6 2 1 8 8 13 13 11
48 45 43 39 37 33 31 28 28 24 23 22 24 15 17 14 12 20 10 12 9 9 6 7 12 10 6 4 4 2 8 3 4 8 8 13 16 16
47 45 44 42 40 35 35 34 31 29 30 26 28 19 22 21 13 21 17 14 16 16 19 18 15 14 13 10 10 12 12 13 12 17 20 17 17 19
52 50 45 43 42 39 34 32 32 28 33 33 31 28 32 31 24 21 24 18 23 23 20 20 20 21 16 17 20 22 21 21 18 16 20 28 24 22
57 54 51 49 48 48 43 38 35 32 29 36 37 36 36 35 30 29 30 26 28 31 36 28 26 28 24 23 26 28 32 31 28 24 28 30 31 31
37 48 53 57 59 54 48 44 40 39 36 33 38 39 39 38 36 39 38 36 35 37 40 32 31 32 31 34 31 32 32 34 31 33 32 39 41 41
7 15 30 39 48 56 54 53 52 47 43 42 37 40 41 41 41 40 38 35 32 36 39 38 37 35 34 36 38 37 38 38 40 42 43 33 44 50
7 9 12 19 32 42 53 55 54 51 49 47 46 42 42 45 47 46 43 43 45 49 46 47 47 47 46 44 42 43 42 43 47 51 52 43 43 48
11 11 12 19 21 27 37 48 54 54 55 52 50 47 45 45 48 47 51 51 51 53 53 53 50 53 54 48 47 48 49 49 50 57 54 43 35 51
25 16 16 15 18 20 21 25 34 47 52 55 57 53 50 50 51 52 52 50 51 52 53 56 59 60 56 55 52 55 52 55 57 56 44 38 42 56
32 29 26 23 21 22 25 25 23 27 34 41 48 54 56 57 56 56 57 57 57 55 54 52 48 50 53 53 56 58 62 59 58 60 48 53 56 61
36 35 37 34 30 24 23 22 20 23 25 24 27 32 40 49 55 61 63 64 62 61 57 56 55 54 54 57 58 59 61 62 60 54 52 59 59 56
40 41 42 42 42 39 34 32 35 37 34 34 34 35 36 38 42 46 49 50 49 50 52 53 56 57 59 61 62 62 60 59 58 55 52 53 54 55
51 48 52 49 47 47 48 51 52 51 48 42 47 45 47 43 40 39 41 46 48 49 48 48 48 51 53 55 57 55 51 51 52 51 54 55 56 54
52 54 55 57 56 57 56 58 58 60 59 58 57 55 54 53 53 48 49 48 50 50 52 54 54 55 56 59 59 61 62 61 61 59 57 62 64 63
61 60 57 58 62 62 63 62 64 68 69 67 60 58 61 58 60 61 59 59 61 62 64 64 66 66 63 63 65 68 70 71 68 68 68 66 69 69
65 66 64 67 66 69 69 71 74 72 71 70 72 71 71 73 68 69 70 71 71 71 71 75 76 69 68 71 70 73 74 73 74 75 76 72 74 76
67 63 65 67 69 70 69 67 68 70 80 78 79 80 77 74 76 78 79 79 80 80 79 80 80 79 77 77 78 80 80 78 79 82 83 82 84 86
71 70 69 69 68 70 71 73 73 74 76 84 85 84 84 83 83 82 81 81 81 82 82 81 84 87 85 85 86 87 87 87 88 89 89 91 93 94

GFSNE_250_spd_291.txt.gz
Wind_Speed
27 19 20 19 16 15 13 11 10 6 6 4 3 0 4 6 6 4 10 8 14 15 20 23 23 24 23 21 20 18 18 17 17 16 14 13 12 10
26 24 25 27 21 18 15 14 12 11 9 8 6 5 4 1 4 7 6 6 8 10 11 16 17 17 18 21 21 20 20 20 19 18 16 14 12 10
30 30 30 31 29 23 19 17 14 14 14 11 11 11 11 9 5 2 2 6 8 8 8 7 10 8 10 11 13 15 15 14 13 12 10 10 10 6
41 36 33 31 36 31 28 24 20 17 16 17 17 15 16 16 15 8 4 7 9 6 5 2 6 4 7 7 6 7 8 8 8 8 6 5 5 6
43 42 40 38 37 34 31 30 27 25 21 17 16 18 17 20 19 15 14 10 10 10 9 4 8 1 5 8 5 1 6 10 10 8 7 3 2 3
54 52 48 44 39 36 37 35 34 33 31 25 21 18 20 25 26 22 20 19 19 19 18 15 12 11 9 9 13 9 8 11 12 9 7 6 2 3
56 58 53 52 47 47 45 41 36 32 33 33 28 26 22 26 31 26 30 27 26 25 23 19 16 18 13 11 12 13 15 16 15 15 16 15 12 9
56 55 53 56 55 49 45 45 42 38 39 37 38 31 31 29 34 35 28 28 30 28 29 28 24 22 22 18 18 18 22 23 19 18 16 18 21 23
61 61 58 53 50 48 47 48 47 43 43 41 41 37 36 34 28 31 36 34 31 32 31 31 33 28 28 29 31 25 29 28 26 26 22 21 22 27
39 45 52 58 62 62 58 53 50 48 45 43 42 43 38 35 32 36 34 37 37 38 38 33 38 41 35 35 33 32 31 36 35 33 31 27 27 32
16 23 27 32 36 41 47 55 62 58 54 53 47 44 46 42 39 43 43 39 37 40 39 39 41 38 39 43 41 39 41 47 39 41 35 36 39 38
10 9 8 11 16 21 27 32 40 50 57 60 60 55 52 51 50 50 49 48 51 50 41 49 43 43 46 46 40 49 51 53 47 47 42 46 49 46
19 18 16 19 21 23 20 19 26 33 40 48 54 56 56 55 56 55 53 53 50 51 52 52 46 48 45 48 45 45 48 50 51 48 50 50 49 42
30 28 28 31 32 31 29 25 24 25 26 30 38 43 49 54 57 58 59 58 57 56 57 56 54 57 56 48 51 49 48 51 53 55 50 50 48 51
30 35 36 37 38 39 41 36 35 36 33 29 30 32 34 41 51 57 60 61 61 61 60 56 56 55 58 61 62 57 51 46 50 53 56 57 61 58
40 39 42 42 43 44 45 44 43 40 40 38 35 33 36 36 35 43 54 59 63 62 61 63 62 61 62 61 61 60 61 66 65 67 63 66 59 52
60 61 59 57 54 53 51 50 52 50 45 44 42 37 35 35 32 33 35 40 46 50 56 59 60 60 61 62 62 63 65 65 70 71 69 62 57 55
64 65 66 69 73 71 67 62 58 57 54 50 49 51 49 48 46 45 43 42 43 40 40 43 45 48 49 50 51 51 53 58 64 69 70 73 72 71
49 52 55 56 55 66 77 78 70 68 65 64 60 59 58 56 60 59 60 59 57 57 53 56 56 57 59 57 56 56 59 59 56 58 60 65 71 73
56 64 68 69 71 72 67 77 82 81 83 83 79 77 70 66 66 65 67 69 71 71 70 71 69 66 68 68 67 66 67 69 68 64 63 64 67 70
69 69 81 69 68 69 68 70 77 81 81 79 78 77 77 74 73 75 77 77 77 79 80 82 81 79 77 77 77 75 73 76 75 73 73 71 72 71
70 79 90 77 66 63 65 68 73 75 77 78 77 76 76 77 79 78 80 83 84 85 87 89 90 88 86 83 83 87 84 84 85 82 80 82 79 80
87 94 87 72 64 64 62 63 68 71 73 76 77 78 78 78 79 80 80 81 84 87 89 90 91 95 92 92 100 94 92 91 91 92 89 87 88 90